Location: Brno
(49.2000°N, 16.6330°E)
Time: 05:56:28
(UTC+02:00)

Iridium 2 - Visible Passes

Search period start: 25 April 2014 00:00
Search period end: 05 May 2014 00:00
Orbit: 537 x 551 km, 85.6° (Epoch: 24 April)

Date Brightness Start Highest point End Pass type
(mag) Time Alt. Az. Time Alt. Az. Time Alt. Az.
25 Apr 4.6 20:39:35 10° NNE 20:43:16 34° ENE 20:46:56 10° SE visible
25 Apr 6.1 22:15:54 10° NNW 22:19:04 23° W 22:22:13 10° SW visible
26 Apr 4.6 20:33:33 10° NNE 20:37:15 34° ENE 20:40:55 10° SE visible
26 Apr 6.1 22:09:52 10° NNW 22:13:02 23° W 22:16:10 10° SW visible
27 Apr 6.1 22:03:50 10° NNW 22:06:59 22° W 22:10:07 10° SW visible
28 Apr 6.2 21:57:47 10° NNW 22:00:56 22° W 22:04:04 10° SW visible
29 Apr 6.2 21:51:43 10° NNW 21:54:51 22° W 21:57:59 10° SW visible
30 Apr 6.2 21:45:38 10° NNW 21:48:46 22° W 21:51:54 10° SW visible
01 May 6.3 21:39:33 10° NNW 21:42:41 22° W 21:45:48 10° SW visible
02 May 6.3 21:33:26 10° NNW 21:36:34 22° W 21:39:41 10° SW visible
03 May 6.4 21:27:19 10° NNW 21:30:27 22° W 21:33:33 10° SW visible
04 May 6.4 21:21:12 10° NNW 21:24:19 22° W 21:27:25 10° SW visible
